| time (UTC) | temp C | wind direction | speed KPH | gust KPH | rain 1hr cm | rain 24hr cm | rain mn cm | humidity % | barometer mb |
| 20260503021828 | 8 | 90 | 0.0 | 0.0 | 0.00 | 0.15 | 0.15 | 94 | 1011.4 |
| 20260503021325 | 8 | 90 | 0.0 | 0.0 | 0.00 | 0.15 | 0.15 | 94 | 1011.4 |
| 20260503020822 | 8 | 90 | 0.0 | 0.0 | 0.00 | 0.15 | 0.15 | 93 | 1011.4 |
| 20260503020320 | 8 | 90 | 0.0 | 0.0 | 0.00 | 0.15 | 0.15 | 93 | 1011.4 |
| 20260503015816 | 8 | 90 | 0.0 | 0.0 | 0.00 | 0.15 | 0.15 | 93 | 1011.2 |
| 20260503015313 | 9 | 90 | 0.0 | 0.0 | 0.00 | 0.15 | 0.15 | 93 | 1011.5 |
| 20260503014809 | 9 | 90 | 0.0 | 0.0 | 0.00 | 0.15 | 0.15 | 93 | 1011.4 |
| 20260503014307 | 9 | 90 | 0.0 | 0.0 | 0.00 | 0.15 | 0.15 | 93 | 1011.5 |
| 20260503013804 | 9 | 95 | 0.0 | 0.0 | 0.00 | 0.15 | 0.15 | 93 | 1011.5 |
| 20260503013301 | 9 | 103 | 0.0 | 0.0 | 0.00 | 0.15 | 0.15 | 93 | 1011.5 |
| 20260503012758 | 9 | 103 | 0.0 | 0.0 | 0.00 | 0.15 | 0.15 | 93 | 1011.5 |
| 20260503012256 | 9 | 96 | 0.0 | 0.0 | 0.00 | 0.15 | 0.15 | 93 | 1011.5 |
| 20260503011752 | 9 | 96 | 0.0 | 0.0 | 0.00 | 0.15 | 0.15 | 92 | 1011.7 |
| 20260503011249 | 9 | 96 | 0.0 | 0.0 | 0.00 | 0.15 | 0.15 | 92 | 1011.7 |
| 20260503010746 | 9 | 96 | 0.0 | 0.0 | 0.00 | 0.15 | 0.15 | 92 | 1011.6 |
| 20260503010243 | 9 | 96 | 0.0 | 0.0 | 0.00 | 0.15 | 0.15 | 92 | 1011.5 |
| 20260503005740 | 9 | 96 | 0.0 | 0.0 | 0.00 | 0.15 | 0.15 | 92 | 1011.4 |
| 20260503005237 | 9 | 99 | 0.0 | 0.0 | 0.00 | 0.15 | 0.15 | 92 | 1011.3 |
| 20260503004733 | 9 | 99 | 0.0 | 0.0 | 0.00 | 0.15 | 0.15 | 91 | 1011.5 |
| 20260503004232 | 9 | 99 | 0.0 | 0.0 | 0.00 | 0.15 | 0.15 | 91 | 1011.4 |
| 20260503003728 | 10 | 99 | 0.0 | 0.0 | 0.00 | 0.15 | 0.15 | 91 | 1011.3 |
| 20260503003226 | 10 | 99 | 0.0 | 0.0 | 0.00 | 0.15 | 0.15 | 91 | 1011.2 |
| 20260503002722 | 10 | 99 | 0.0 | 0.0 | 0.00 | 0.15 | 0.15 | 91 | 1011.3 |
| 20260503002219 | 10 | 99 | 0.0 | 0.0 | 0.00 | 0.15 | 0.15 | 90 | 1011.1 |
| 20260503001715 | 10 | 99 | 0.0 | 0.0 | 0.00 | 0.15 | 0.15 | 90 | 1011.1 |
| 20260503001212 | 10 | 99 | 0.0 | 0.0 | 0.00 | 0.15 | 0.15 | 90 | 1011.1 |
| 20260503000710 | 10 | 99 | 0.0 | 0.0 | 0.00 | 0.15 | 0.15 | 89 | 1011.1 |
| 20260503000207 | 10 | 99 | 0.0 | 0.0 | 0.00 | 0.15 | 0.15 | 89 | 1011.1 |
| 20260502235704 | 10 | 99 | 0.0 | 0.0 | 0.00 | 0.15 | 0.15 | 89 | 1011.1 |
| 20260502235201 | 10 | 99 | 0.0 | 0.0 | 0.00 | 0.15 | 0.15 | 89 | 1011.3 |
| 20260502234657 | 10 | 99 | 0.0 | 0.0 | 0.00 | 0.15 | 0.15 | 88 | 1011.2 |
| 20260502234155 | 10 | 99 | 0.0 | 0.0 | 0.00 | 0.15 | 0.15 | 88 | 1011.2 |
| 20260502233650 | 10 | 103 | 0.0 | 0.0 | 0.00 | 0.15 | 0.15 | 88 | 1011.1 |
| 20260502233147 | 10 | 103 | 0.0 | 1.6 | 0.00 | 0.15 | 0.15 | 88 | 1011.1 |
| 20260502232643 | 10 | 104 | 0.0 | 0.0 | 0.00 | 0.15 | 0.15 | 88 | 1011.3 |
| 20260502232141 | 10 | 104 | 0.0 | 0.0 | 0.00 | 0.15 | 0.15 | 87 | 1011.4 |
| 20260502231637 | 10 | 104 | 0.0 | 0.0 | 0.00 | 0.15 | 0.15 | 87 | 1011.4 |
| 20260502231135 | 10 | 104 | 0.0 | 0.0 | 0.00 | 0.15 | 0.15 | 87 | 1011.3 |
| 20260502230633 | 10 | 102 | 0.0 | 1.6 | 0.00 | 0.15 | 0.15 | 86 | 1011.3 |
| 20260502230132 | 10 | 77 | 0.0 | 0.0 | 0.00 | 0.15 | 0.15 | 86 | 1011.4 |
| 20260502225627 | 10 | 96 | 0.0 | 0.0 | 0.00 | 0.15 | 0.15 | 86 | 1011.3 |
| 20260502225124 | 10 | 92 | 0.0 | 1.6 | 0.00 | 0.15 | 0.15 | 86 | 1011.4 |
| 20260502224621 | 10 | 83 | 0.0 | 1.6 | 0.00 | 0.15 | 0.15 | 86 | 1011.3 |
| 20260502224117 | 10 | 98 | 0.0 | 3.2 | 0.00 | 0.15 | 0.15 | 85 | 1011.4 |
| 20260502223615 | 10 | 92 | 0.0 | 0.0 | 0.00 | 0.15 | 0.15 | 86 | 1011.2 |
| 20260502223114 | 10 | 84 | 0.0 | 3.2 | 0.00 | 0.15 | 0.15 | 85 | 1011.3 |
| 20260502222610 | 10 | 87 | 0.0 | 4.8 | 0.00 | 0.15 | 0.15 | 85 | 1011.3 |
| 20260502222107 | 10 | 98 | 0.0 | 0.0 | 0.00 | 0.15 | 0.15 | 85 | 1011.1 |
| 20260502221602 | 10 | 98 | 0.0 | 0.0 | 0.00 | 0.15 | 0.15 | 84 | 1011.3 |
| 20260502221100 | 10 | 94 | 0.0 | 0.0 | 0.00 | 0.15 | 0.15 | 84 | 1011.2 |
| 20260502220555 | 10 | 96 | 0.0 | 0.0 | 0.00 | 0.15 | 0.15 | 85 | 1011.2 |
| 20260502220052 | 10 | 69 | 0.0 | 0.0 | 0.00 | 0.15 | 0.15 | 84 | 1011.0 |
| 20260502215549 | 10 | 84 | 0.0 | 3.2 | 0.00 | 0.15 | 0.15 | 84 | 1011.1 |
| 20260502215046 | 10 | 69 | 0.0 | 0.0 | 0.00 | 0.15 | 0.15 | 85 | 1011.0 |
| 20260502214543 | 10 | 69 | 0.0 | 0.0 | 0.00 | 0.15 | 0.15 | 84 | 1011.2 |
| 20260502214041 | 10 | 94 | 0.0 | 0.0 | 0.00 | 0.15 | 0.15 | 84 | 1011.3 |
| 20260502213537 | 11 | 78 | 0.0 | 1.6 | 0.00 | 0.15 | 0.15 | 84 | 1011.2 |
| 20260502213035 | 11 | 85 | 0.0 | 0.0 | 0.00 | 0.15 | 0.15 | 84 | 1011.3 |
| 20260502212534 | 11 | 89 | 0.0 | 3.2 | 0.00 | 0.15 | 0.15 | 83 | 1011.1 |
| 20260502212031 | 11 | 76 | 0.0 | 0.0 | 0.00 | 0.15 | 0.15 | 84 | 1011.0 |
| 20260502211526 | 11 | 87 | 0.0 | 3.2 | 0.00 | 0.15 | 0.15 | 84 | 1011.3 |
| 20260502211024 | 10 | 75 | 0.0 | 0.0 | 0.00 | 0.15 | 0.15 | 84 | 1011.1 |
| 20260502210521 | 10 | 72 | 0.0 | 3.2 | 0.00 | 0.15 | 0.15 | 84 | 1011.1 |
| 20260502210018 | 10 | 98 | 1.6 | 3.2 | 0.00 | 0.15 | 0.15 | 84 | 1011.1 |
| 20260502205514 | 10 | 47 | 0.0 | 1.6 | 0.00 | 0.15 | 0.15 | 85 | 1011.2 |
| 20260502205012 | 10 | 92 | 0.0 | 0.0 | 0.00 | 0.15 | 0.15 | 85 | 1011.1 |
| 20260502204508 | 10 | 76 | 0.0 | 3.2 | 0.00 | 0.15 | 0.15 | 84 | 1011.1 |
| 20260502204007 | 10 | 113 | 1.6 | 4.8 | 0.00 | 0.15 | 0.15 | 83 | 1011.0 |
| 20260502203503 | 11 | 87 | 0.0 | 0.0 | 0.00 | 0.15 | 0.15 | 84 | 1011.2 |
| 20260502203000 | 11 | 83 | 0.0 | 0.0 | 0.00 | 0.15 | 0.15 | 84 | 1011.2 |
| 20260502202456 | 11 | 114 | 0.0 | 1.6 | 0.00 | 0.15 | 0.15 | 84 | 1011.4 |
| 20260502201955 | 11 | 108 | 0.0 | 0.0 | 0.00 | 0.15 | 0.15 | 85 | 1011.2 |
| 20260502201450 | 11 | 119 | 0.0 | 6.4 | 0.00 | 0.15 | 0.15 | 83 | 1011.5 |
| 20260502200947 | 11 | 83 | 0.0 | 1.6 | 0.00 | 0.15 | 0.15 | 85 | 1011.4 |
| 20260502200443 | 11 | 118 | 1.6 | 4.8 | 0.00 | 0.15 | 0.15 | 84 | 1011.5 |
| 20260502195940 | 10 | 110 | 0.0 | 0.0 | 0.00 | 0.15 | 0.15 | 85 | 1011.6 |
| 20260502195438 | 10 | 95 | 0.0 | 3.2 | 0.00 | 0.15 | 0.15 | 85 | 1011.7 |
| 20260502194934 | 10 | 95 | 0.0 | 6.4 | 0.00 | 0.15 | 0.15 | 85 | 1011.6 |
| 20260502194431 | 10 | 97 | 0.0 | 4.8 | 0.00 | 0.15 | 0.15 | 86 | 1011.9 |
| 20260502193926 | 10 | 106 | 0.0 | 1.6 | 0.00 | 0.15 | 0.15 | 86 | 1011.9 |
| 20260502193424 | 10 | 82 | 0.0 | 0.0 | 0.00 | 0.15 | 0.15 | 87 | 1011.6 |
| 20260502192919 | 10 | 87 | 0.0 | 0.0 | 0.00 | 0.15 | 0.15 | 88 | 1011.9 |
| 20260502192416 | 10 | 104 | 1.6 | 3.2 | 0.00 | 0.15 | 0.15 | 88 | 1011.8 |
| 20260502191914 | 10 | 102 | 0.0 | 4.8 | 0.00 | 0.15 | 0.15 | 88 | 1012.0 |
| 20260502191412 | 10 | 141 | 1.6 | 6.4 | 0.00 | 0.15 | 0.15 | 88 | 1011.9 |
| 20260502190909 | 10 | 66 | 1.6 | 4.8 | 0.00 | 0.15 | 0.15 | 89 | 1011.9 |
| 20260502190406 | 10 | 97 | 0.0 | 1.6 | 0.00 | 0.15 | 0.15 | 89 | 1011.9 |
| 20260502185902 | 10 | 65 | 0.0 | 3.2 | 0.00 | 0.15 | 0.15 | 89 | 1012.2 |
| 20260502185357 | 10 | 80 | 0.0 | 1.6 | 0.00 | 0.15 | 0.15 | 91 | 1012.2 |
| 20260502184855 | 10 | 110 | 0.0 | 3.2 | 0.00 | 0.15 | 0.15 | 90 | 1012.1 |
| 20260502184350 | 10 | 72 | 0.0 | 3.2 | 0.00 | 0.15 | 0.15 | 90 | 1012.3 |
| 20260502183847 | 10 | 103 | 1.6 | 4.8 | 0.00 | 0.15 | 0.15 | 89 | 1012.4 |
| 20260502183343 | 10 | 103 | 0.0 | 1.6 | 0.00 | 0.15 | 0.15 | 90 | 1012.6 |
| 20260502182838 | 10 | 105 | 0.0 | 1.6 | 0.00 | 0.15 | 0.15 | 90 | 1012.5 |
| 20260502182334 | 10 | 91 | 0.0 | 3.2 | 0.00 | 0.15 | 0.15 | 91 | 1012.2 |
| 20260502181831 | 10 | 107 | 1.6 | 3.2 | 0.00 | 0.15 | 0.15 | 90 | 1012.4 |
| 20260502181330 | 10 | 105 | 0.0 | 0.0 | 0.00 | 0.15 | 0.15 | 90 | 1012.5 |
| 20260502180827 | 10 | 116 | 0.0 | 1.6 | 0.18 | 0.15 | 0.15 | 90 | 1012.3 |
| 20260502180324 | 10 | 81 | 0.0 | 3.2 | 0.00 | 0.13 | 0.13 | 89 | 1012.4 |
| 20260502170243 | 10 | 76 | 0.0 | 1.6 | 0.13 | 0.08 | 0.08 | 88 | 1012.7 |
| 20260502164231 | 11 | 86 | 0.0 | 0.0 | 0.18 | 0.05 | 0.05 | 86 | 1012.6 |
| 20260502163726 | 11 | 89 | 0.0 | 0.0 | 0.13 | 0.03 | 0.03 | 83 | 1012.7 |
| 20260502163223 | 11 | 86 | 0.0 | 0.0 | 0.00 | 0.00 | 0.00 | 82 | 1012.9 |
| 20260502162720 | 11 | 82 | 0.0 | 0.0 | 0.00 | 0.00 | 0.00 | 80 | 1012.8 |
| 20260502162217 | 11 | 80 | 0.0 | 0.0 | 0.00 | 0.00 | 0.00 | 75 | 1012.6 |
| 20260502161714 | 11 | 83 | 0.0 | 1.6 | 0.00 | 0.00 | 0.00 | 70 | 1012.7 |
| 20260502161210 | 11 | 77 | 0.0 | 4.8 | 0.00 | 0.00 | 0.00 | 73 | 1012.7 |
| 20260502160709 | 12 | 92 | 0.0 | 1.6 | 0.00 | 0.00 | 0.00 | 77 | 1012.7 |
| 20260502160207 | 12 | 81 | 0.0 | 1.6 | 0.00 | 0.00 | 0.00 | 73 | 1012.6 |
| 20260502152120 | 13 | 88 | 0.0 | 3.2 | 0.00 | 0.00 | 0.00 | 68 | 1012.8 |
| 20260502151618 | 13 | 99 | 0.0 | 1.6 | 0.00 | 0.00 | 0.00 | 70 | 1012.6 |
| 20260502151115 | 13 | 87 | 0.0 | 1.6 | 0.00 | 0.00 | 0.00 | 69 | 1012.8 |
| 20260502150613 | 13 | 86 | 0.0 | 0.0 | 0.00 | 0.00 | 0.00 | 71 | 1013.1 |
| 20260502150108 | 12 | 85 | 1.6 | 3.2 | 0.00 | 0.00 | 0.00 | 71 | 1012.7 |
| 20260502130457 | 10 | 70 | 0.0 | 0.0 | 0.00 | 0.00 | 0.00 | 81 | 1013.6 |
| 20260502123440 | 10 | 73 | 0.0 | 0.0 | 0.00 | 0.00 | 0.00 | 82 | 1013.5 |
| 20260502122937 | 10 | 97 | 0.0 | 0.0 | 0.00 | 0.00 | 0.00 | 82 | 1013.5 |
| 20260502122433 | 9 | 66 | 0.0 | 0.0 | 0.00 | 0.00 | 0.00 | 83 | 1013.8 |
| 20260502121931 | 9 | 66 | 0.0 | 0.0 | 0.00 | 0.00 | 0.00 | 83 | 1013.7 |
| 20260502121428 | 9 | 68 | 0.0 | 0.0 | 0.00 | 0.00 | 0.00 | 83 | 1013.7 |
| 20260502120926 | 9 | 84 | 0.0 | 0.0 | 0.00 | 0.00 | 0.00 | 84 | 1013.6 |
| 20260502120422 | 9 | 70 | 0.0 | 0.0 | 0.00 | 0.00 | 0.00 | 84 | 1013.2 |
| 20260502115919 | 9 | 101 | 0.0 | 6.4 | 0.00 | 0.00 | 0.00 | 83 | 1013.3 |
| 20260502115416 | 9 | 88 | 0.0 | 1.6 | 0.00 | 0.00 | 0.00 | 82 | 1013.5 |
| 20260502114912 | 9 | 72 | 0.0 | 1.6 | 0.00 | 0.00 | 0.00 | 83 | 1013.4 |
| 20260502114409 | 8 | 130 | 0.0 | 0.0 | 0.00 | 0.00 | 0.00 | 84 | 1013.2 |
| 20260502113906 | 8 | 92 | 0.0 | 0.0 | 0.00 | 0.00 | 0.00 | 84 | 1013.3 |
| 20260502113404 | 8 | 108 | 0.0 | 0.0 | 0.00 | 0.00 | 0.00 | 84 | 1013.2 |
| 20260502112902 | 8 | 94 | 0.0 | 1.6 | 0.00 | 0.00 | 0.00 | 84 | 1013.3 |
| 20260502112359 | 8 | 140 | 0.0 | 1.6 | 0.00 | 0.00 | 0.00 | 85 | 1013.4 |
| 20260502111857 | 8 | 102 | 0.0 | 0.0 | 0.00 | 0.00 | 0.00 | 86 | 1013.2 |
| 20260502111354 | 8 | 100 | 0.0 | 0.0 | 0.00 | 0.00 | 0.00 | 86 | 1013.1 |
| 20260502110851 | 7 | 101 | 0.0 | 0.0 | 0.00 | 0.00 | 0.00 | 86 | 1013.0 |
| 20260502110349 | 7 | 102 | 0.0 | 0.0 | 0.00 | 0.00 | 0.00 | 86 | 1013.1 |
| 20260502105846 | 7 | 102 | 0.0 | 0.0 | 0.00 | 0.00 | 0.00 | 86 | 1013.2 |
| 20260502105343 | 7 | 97 | 0.0 | 0.0 | 0.00 | 0.00 | 0.00 | 86 | 1013.1 |
| 20260502104841 | 7 | 98 | 0.0 | 0.0 | 0.00 | 0.00 | 0.00 | 86 | 1013.0 |
| 20260502104338 | 7 | 89 | 0.0 | 0.0 | 0.00 | 0.00 | 0.00 | 86 | 1013.2 |
| 20260502103835 | 7 | 102 | 0.0 | 0.0 | 0.00 | 0.00 | 0.00 | 86 | 1013.0 |
| 20260502103333 | 7 | 95 | 0.0 | 0.0 | 0.00 | 0.00 | 0.00 | 86 | 1012.9 |
| 20260502102830 | 7 | 103 | 0.0 | 0.0 | 0.00 | 0.00 | 0.00 | 86 | 1013.0 |
| 20260502102326 | 7 | 111 | 0.0 | 1.6 | 0.00 | 0.00 | 0.00 | 86 | 1012.9 |
| 20260502101824 | 7 | 81 | 0.0 | 0.0 | 0.00 | 0.00 | 0.00 | 86 | 1012.8 |
| 20260502101322 | 7 | 77 | 0.0 | 1.6 | 0.00 | 0.00 | 0.00 | 86 | 1012.9 |
| 20260502100820 | 7 | 86 | 0.0 | 0.0 | 0.00 | 0.00 | 0.00 | 86 | 1013.0 |
| 20260502100319 | 7 | 78 | 0.0 | 0.0 | 0.00 | 0.00 | 0.00 | 86 | 1012.8 |
| 20260502091253 | 7 | 92 | 0.0 | 0.0 | 0.00 | 0.00 | 0.00 | 85 | 1012.5 |
| 20260502090750 | 7 | 75 | 0.0 | 0.0 | 0.00 | 0.00 | 0.00 | 85 | 1012.7 |
| 20260502090246 | 7 | 76 | 0.0 | 0.0 | 0.00 | 0.00 | 0.00 | 85 | 1012.7 |
| 20260502071147 | 7 | 95 | 0.0 | 0.0 | 0.00 | 0.00 | 0.00 | 78 | 1012.5 |
| 20260502070645 | 7 | 95 | 0.0 | 0.0 | 0.00 | 0.00 | 0.00 | 77 | 1012.7 |
| 20260502070143 | 7 | 95 | 0.0 | 0.0 | 0.00 | 0.00 | 0.00 | 76 | 1012.7 |
| 20260502065641 | 8 | 95 | 0.0 | 0.0 | 0.00 | 0.00 | 0.00 | 75 | 1012.6 |
| 20260502065138 | 8 | 95 | 0.0 | 0.0 | 0.00 | 0.00 | 0.00 | 74 | 1012.5 |
| 20260502064637 | 8 | 86 | 0.0 | 0.0 | 0.00 | 0.00 | 0.00 | 73 | 1012.7 |
| 20260502064134 | 8 | 86 | 0.0 | 0.0 | 0.00 | 0.00 | 0.00 | 72 | 1012.6 |
| 20260502063631 | 8 | 86 | 0.0 | 0.0 | 0.00 | 0.00 | 0.00 | 71 | 1012.8 |
| 20260502063129 | 8 | 95 | 0.0 | 1.6 | 0.00 | 0.00 | 0.00 | 71 | 1012.8 |
| 20260502062626 | 9 | 84 | 0.0 | 1.6 | 0.00 | 0.00 | 0.00 | 70 | 1012.9 |
| 20260502062123 | 9 | 85 | 0.0 | 0.0 | 0.00 | 0.00 | 0.00 | 70 | 1012.9 |
| 20260502061622 | 9 | 86 | 0.0 | 0.0 | 0.00 | 0.00 | 0.00 | 69 | 1012.9 |
| 20260502061119 | 10 | 42 | 0.0 | 1.6 | 0.00 | 0.00 | 0.00 | 68 | 1012.7 |
| 20260502060619 | 10 | 79 | 0.0 | 3.2 | 0.00 | 0.00 | 0.00 | 67 | 1012.9 |
| 20260502060116 | 10 | 86 | 0.0 | 0.0 | 0.00 | 0.00 | 0.00 | 67 | 1012.8 |
| 20260502055614 | 10 | 98 | 0.0 | 1.6 | 0.00 | 0.00 | 0.00 | 67 | 1012.9 |
| 20260502055111 | 10 | 87 | 0.0 | 3.2 | 0.00 | 0.00 | 0.00 | 66 | 1012.8 |
| 20260502054610 | 10 | 89 | 0.0 | 3.2 | 0.00 | 0.00 | 0.00 | 65 | 1013.0 |
| 20260502054107 | 10 | 87 | 0.0 | 0.0 | 0.00 | 0.00 | 0.00 | 66 | 1013.0 |
| 20260502053604 | 10 | 102 | 0.0 | 3.2 | 0.00 | 0.00 | 0.00 | 65 | 1013.0 |
| 20260502053101 | 10 | 82 | 0.0 | 3.2 | 0.00 | 0.00 | 0.00 | 65 | 1013.0 |
| 20260502052600 | 10 | 95 | 0.0 | 0.0 | 0.00 | 0.00 | 0.00 | 65 | 1013.1 |
| 20260502052057 | 10 | 120 | 0.0 | 1.6 | 0.00 | 0.00 | 0.00 | 65 | 1013.2 |
| 20260502051555 | 10 | 77 | 0.0 | 0.0 | 0.00 | 0.00 | 0.00 | 65 | 1013.4 |
| 20260502051053 | 10 | 56 | 1.6 | 1.6 | 0.00 | 0.00 | 0.00 | 65 | 1013.2 |
| 20260502050549 | 10 | 113 | 0.0 | 0.0 | 0.00 | 0.00 | 0.00 | 65 | 1013.1 |
| 20260502050046 | 10 | 66 | 0.0 | 3.2 | 0.00 | 0.00 | 0.00 | 65 | 1013.0 |
| 20260502045543 | 10 | 80 | 0.0 | 0.0 | 0.00 | 0.00 | 0.00 | 65 | 1013.0 |
| 20260502045040 | 10 | 85 | 0.0 | 0.0 | 0.00 | 0.00 | 0.00 | 65 | 1013.0 |
| 20260502044536 | 10 | 81 | 0.0 | 1.6 | 0.00 | 0.00 | 0.00 | 65 | 1013.2 |
| 20260502044033 | 10 | 120 | 0.0 | 0.0 | 0.00 | 0.00 | 0.00 | 66 | 1013.1 |
| 20260502043531 | 10 | 100 | 0.0 | 0.0 | 0.00 | 0.00 | 0.00 | 66 | 1013.1 |
| 20260502043026 | 10 | 73 | 0.0 | 1.6 | 0.00 | 0.00 | 0.00 | 66 | 1013.1 |
| 20260502042522 | 10 | 89 | 0.0 | 0.0 | 0.00 | 0.00 | 0.00 | 67 | 1013.1 |
| 20260502042020 | 10 | 84 | 0.0 | 4.8 | 0.00 | 0.00 | 0.00 | 67 | 1013.1 |
| 20260502041517 | 10 | 77 | 0.0 | 1.6 | 0.00 | 0.00 | 0.00 | 67 | 1013.2 |
| 20260502041014 | 10 | 87 | 0.0 | 1.6 | 0.00 | 0.00 | 0.00 | 67 | 1013.3 |
| 20260502040511 | 10 | 87 | 0.0 | 0.0 | 0.00 | 0.00 | 0.00 | 67 | 1013.2 |
| 20260502040008 | 9 | 88 | 0.0 | 0.0 | 0.00 | 0.00 | 0.00 | 68 | 1013.3 |
| 20260502035503 | 9 | 88 | 0.0 | 0.0 | 0.00 | 0.00 | 0.00 | 68 | 1013.3 |
| 20260502035001 | 9 | 96 | 0.0 | 0.0 | 0.00 | 0.00 | 0.00 | 67 | 1013.4 |
| 20260502034459 | 9 | 92 | 0.0 | 0.0 | 0.00 | 0.00 | 0.00 | 68 | 1013.3 |
| 20260502033958 | 9 | 108 | 0.0 | 0.0 | 0.00 | 0.00 | 0.00 | 68 | 1013.3 |
| 20260502033455 | 9 | 90 | 0.0 | 0.0 | 0.00 | 0.00 | 0.00 | 68 | 1013.3 |
| 20260502032951 | 9 | 90 | 0.0 | 0.0 | 0.00 | 0.00 | 0.00 | 68 | 1013.3 |
| 20260502032448 | 9 | 90 | 0.0 | 0.0 | 0.00 | 0.00 | 0.00 | 68 | 1013.2 |
| 20260502031944 | 9 | 90 | 0.0 | 0.0 | 0.00 | 0.00 | 0.00 | 69 | 1013.4 |
| 20260502031443 | 9 | 69 | 0.0 | 1.6 | 0.00 | 0.00 | 0.00 | 68 | 1013.4 |
| 20260502030941 | 9 | 92 | 0.0 | 0.0 | 0.00 | 0.00 | 0.00 | 69 | 1013.2 |
| 20260502030439 | 9 | 73 | 0.0 | 0.0 | 0.00 | 0.00 | 0.00 | 68 | 1013.3 |
| 20260502025937 | 9 | 101 | 0.0 | 0.0 | 0.00 | 0.00 | 0.00 | 68 | 1013.3 |
| 20260502025433 | 9 | 100 | 0.0 | 0.0 | 0.00 | 0.00 | 0.00 | 68 | 1013.4 |
| 20260502024931 | 9 | 95 | 0.0 | 0.0 | 0.00 | 0.00 | 0.00 | 68 | 1013.0 |
| 20260502024429 | 9 | 94 | 0.0 | 0.0 | 0.00 | 0.00 | 0.00 | 67 | 1013.2 |
| 20260502023927 | 9 | 90 | 0.0 | 0.0 | 0.00 | 0.00 | 0.00 | 67 | 1013.0 |
| 20260502023424 | 9 | 97 | 0.0 | 0.0 | 0.00 | 0.00 | 0.00 | 66 | 1013.0 |
| 20260502022922 | 9 | 92 | 0.0 | 0.0 | 0.00 | 0.00 | 0.00 | 66 | 1013.2 |
| 20260502022418 | 10 | 92 | 0.0 | 0.0 | 0.00 | 0.00 | 0.00 | 65 | 1013.2 |